Location: DaVinci Observatory
(43.1080°N, 78.6453°W)
Time: 01:43:47
(UTC-05:00)

Tiangong 2 - Pass Details

Date: 11 October 2017
Orbit: 386 x 390 km, 42.8° (Epoch: 11 December)

Event Time Altitude Azimuth Distance (km) Brightness Sun altitude
Exits shadow 06:14:34 24° 242° (WSW) 861 2.3 -13.4°
Maximum altitude 06:16:19 63° 166° (SSE) 440 1.3 -13.1°
Drops below altitude 10° 06:19:30 10° 85° (E) 1,425 5.5 -12.5°
Sets 06:21:35 0° 82° (E) 2,283 7.0 -12.1°
